Location: Alafon
(8.4500°N, 4.2333°E)
Time: 17:38:18
(UTC+00:00)

A-11 Canister half - Pass Details

Date: 06 August 2021
Orbit: 1515 x 1685 km, 47.2° (Epoch: 19 September)

Event Time Altitude Azimuth Distance (km) Brightness Sun altitude
Rises 01:51:33 0° 286° (WNW) 4,923 - -50.6°
Reaches altitude 10° 01:56:25 10° 266° (W) 3,918 - -49.7°
Maximum altitude 02:02:02 16° 231° (SW) 3,400 - -48.6°
Drops below altitude 10° 02:07:37 10° 196° (SSW) 3,855 - -47.5°
Sets 02:12:25 0° 176° (S) 4,806 - -46.5°
